IRIDIUM 911

Satellite information

Favourite Embed

Satellite Type and Status

PAYLOADIN ORBIT

Key statistics

Satellite IRIDIUM 911 at a glance.

Uptime

10351

Days in orbit

Revolutions

≈ 14.5

Per day

Orbit

LEO

Low Earth Orbit

Inclination

86.4

Latest

Satellite identification and parameters

Extended collection of information and parameters for IRIDIUM 911.

Object identification

Identified? True

Debris? False

Object name: IRIDIUM 911

International designator: 1997-030G

Object number (NORAD): 24842

Object ID (CCSDS): 24842

Country: UNITED STATES OF AMERICA (US)

Current information (Y/N): Y

RCS size: LARGE

Orbital parameters

Period: 99.462 minutes

Inclination: 86.4476 deg

SMA: 7110.992 km

Apoapsis: 744.105 km

Periapsis: 721.609 km

RAAN: 151.5847 deg

Eccentricy: 0.00158182

Argument of periapsis: 47.5679 deg

Mean anomaly: 312.6859 deg

Mean motion: 14.47796316 rev/day

Mean motion (dot): 0.00000899 rev/day2

B* drag term: 0.00023735144 1/REarth

Two-line elements (TLE)

Creation date: Oct. 20, 2025, 2:10 a.m.

Reference frame: TEME

Reference center: EARTH

Epoch: Oct. 19, 2025, 9:02 p.m. UTC

TLE line 0: 0 IRIDIUM 911

TLE line 1: 1 24842U 97030G 25292.87649006 .00000899 00000-0 23735-3 0 9998

TLE line 2: 2 24842 86.4476 151.5847 0015818 47.5679 312.6859 14.47796316493120

Live tracking on map

Real-time ground track for satellite IRIDIUM 911.

In-orbit conjunctions

A list of the most updated potential collisions computed for object IRIDIUM 911.

Target Orbit TCA Probability of collision Miss distance Type
DMSP 5D-2 F11 DEB SSO 2025-10-12 17:02:03 0.0001145434 409.0 (m) DEBRIS
FENGYUN 1C DEB SSO 2025-10-01 23:53:59 0.0006037497 59.0 (m) DEBRIS
NOAA 16 DEB SSO 2025-08-23 20:12:47 0.0001368623 886.0 (m) DEBRIS
CZ-6A DEB LEO 2025-03-15 07:55:50 0.0003487983 848.0 (m) DEBRIS
DMSP 5D-2 F15 DEB SSO 2025-01-25 00:51:15 0.0002190726 648.0 (m) DEBRIS

Associated space launch

Iridium provides global mobile telecommunications services using a constellation of 66 low earth orbit satellites in a 86.4° inclined orbit. Although 77 satellites were originally envisioned for the system and spawned the name based on the 77th element in the periodic table, the system has been scaled back. Motorola's Satellite Communications Group designed and manufactured the Iridium satellites with Lockheed Martin providing the LM-700A spacecraft buses.

IRIDIUM 911 was lifted into orbit during the mission ‘Proton-K/17S40 | Iridium 09 to 14 & Iridium 16’, on board a Proton-K/17S40 space rocket.

The launch took place on June 18, 1997, 2:02 p.m. from 81/23 (81L).

For more information about the launch, click the button.

Launch to space Proton-K/17S40 | Iridium 09 to 14 & Iridium 16
Proton-K/17S40 | Iridium 09 to 14 & Iridium 16

Agency: N/A

Status: Launch Successful

Launch date: June 18, 1997, 2:02 p.m. UTC

Rocket: Proton-K/17S40

Launch pad: 81/23 (81L)

Location: Baikonur Cosmodrome, Republic of Kazakhstan

...

Latest news about this satellite

There are no fresh news available about this satellite. Check back as we update our databases every day.


Newsletter sign-up

Weekly statistics, charts and insights to help you stay on top of the space industry.